Time,TemperatureF,DewpointF,PressureIn,WindDirection,WindDirectionDegrees,WindSpeedMPH,WindSpeedGustMPH,Humidity,HourlyPrecipIn,Conditions,Clouds,dailyrainin,SoftwareType,DateUTC
2013-07-22 00:01:00,58.4,42.7,30.02,SW,225,0.0,0.0,56,0.00,CLR,,0.00,WeatherDisplay:10.37,2013-07-22 04:01:00,
2013-07-22 00:02:00,58.4,43.2,30.03,SW,225,0.0,0.0,57,0.00,CLR,,0.00,WeatherDisplay:10.37,2013-07-22 04:02:00,
2013-07-22 00:04:00,58.3,54.7,30.03,West,270,0.0,0.0,88,0.00,CLR,,0.00,WeatherDisplay:10.37,2013-07-22 04:04:00,
2013-07-22 00:05:00,58.3,42.6,30.03,West,270,0.0,0.0,56,0.00,CLR,,0.00,WeatherDisplay:10.37,2013-07-22 04:05:00,
2013-07-22 00:09:00,58.2,54.6,30.03,SW,225,0.0,0.0,88,0.00,CLR,,0.00,WeatherDisplay:10.37,2013-07-22 04:09:00,
2013-07-22 00:14:00,58.0,54.5,30.03,WSW,248,0.0,0.0,88,0.00,CLR,,0.00,WeatherDisplay:10.37,2013-07-22 04:14:00,
2013-07-22 00:19:00,57.7,54.2,30.03,SW,225,0.0,0.0,88,0.00,CLR,,0.00,WeatherDisplay:10.37,2013-07-22 04:19:00,
2013-07-22 00:24:00,57.8,54.3,30.03,SSE,158,0.0,0.0,88,0.00,CLR,,0.00,WeatherDisplay:10.37,2013-07-22 04:24:00,
2013-07-22 00:29:00,57.7,42.1,30.03,South,180,3.5,3.5,56,0.00,CLR,,0.00,WeatherDisplay:10.37,2013-07-22 04:29:00,
2013-07-22 00:34:00,57.8,54.2,30.03,SSW,202,1.2,1.2,88,0.00,CLR,,0.00,WeatherDisplay:10.37,2013-07-22 04:34:00,
2013-07-22 00:39:00,57.5,42.4,30.03,WSW,248,0.0,0.0,57,0.00,CLR,,0.00,WeatherDisplay:10.37,2013-07-22 04:39:00,
2013-07-22 00:44:00,57.4,41.8,30.03,West,270,0.0,0.0,56,0.00,CLR,,0.00,WeatherDisplay:10.37,2013-07-22 04:44:00,
2013-07-22 00:49:00,57.5,41.9,30.03,SSE,158,0.0,0.0,56,0.00,CLR,,0.00,WeatherDisplay:10.37,2013-07-22 04:49:00,
2013-07-22 00:54:00,57.3,53.8,30.03,WSW,248,0.0,0.0,88,0.00,CLR,,0.00,WeatherDisplay:10.37,2013-07-22 04:54:00,
2013-07-22 00:59:00,57.3,42.2,30.03,SSW,202,0.0,0.0,57,0.00,CLR,,0.00,WeatherDisplay:10.37,2013-07-22 04:59:00,
2013-07-22 01:04:00,57.0,41.9,30.03,SW,225,0.0,0.0,57,0.00,CLR,,0.00,WeatherDisplay:10.37,2013-07-22 05:04:00,
2013-07-22 01:09:00,56.7,52.9,30.03,SW,225,1.2,1.2,87,0.00,CLR,,0.00,WeatherDisplay:10.37,2013-07-22 05:09:00,
2013-07-22 01:14:00,56.9,41.8,30.03,SW,225,0.0,0.0,57,0.00,CLR,,0.00,WeatherDisplay:10.37,2013-07-22 05:14:00,
2013-07-22 01:19:00,57.0,41.9,30.03,West,270,0.0,0.0,57,0.00,CLR,,0.00,WeatherDisplay:10.37,2013-07-22 05:19:00,
2013-07-22 01:24:00,57.1,41.5,30.03,WSW,248,0.0,0.0,56,0.00,CLR,,0.00,WeatherDisplay:10.37,2013-07-22 05:24:00,
2013-07-22 01:29:00,56.9,42.3,30.03,SW,225,0.0,0.0,58,0.00,CLR,,0.00,WeatherDisplay:10.37,2013-07-22 05:29:00,
2013-07-22 01:34:00,56.8,41.3,30.03,SW,225,0.0,0.0,56,0.00,CLR,,0.00,WeatherDisplay:10.37,2013-07-22 05:34:00,
2013-07-22 01:39:00,56.8,41.7,30.03,South,180,0.0,0.0,57,0.00,CLR,,0.00,WeatherDisplay:10.37,2013-07-22 05:39:00,
2013-07-22 01:44:00,56.6,41.6,30.03,ESE,112,0.0,0.0,57,0.00,CLR,,0.00,WeatherDisplay:10.37,2013-07-22 05:44:00,
2013-07-22 01:49:00,56.7,52.9,30.03,West,270,0.0,0.0,87,0.00,CLR,,0.00,WeatherDisplay:10.37,2013-07-22 05:49:00,
2013-07-22 01:54:00,56.8,53.0,30.03,West,270,0.0,0.0,87,0.00,CLR,,0.00,WeatherDisplay:10.37,2013-07-22 05:54:00,
2013-07-22 01:59:00,56.6,52.8,30.03,SW,225,0.0,0.0,87,0.00,CLR,,0.00,WeatherDisplay:10.37,2013-07-22 05:59:00,
2013-07-22 02:05:00,56.6,41.5,30.02,SW,225,0.0,0.0,57,0.00,BKN,,0.00,WeatherDisplay:10.37,2013-07-22 06:05:00,
2013-07-22 02:10:00,56.8,42.1,30.02,WSW,248,0.0,0.0,58,0.00,BKN,,0.00,WeatherDisplay:10.37,2013-07-22 06:10:00,
2013-07-22 02:15:00,56.9,41.8,30.02,West,270,0.0,0.0,57,0.00,BKN,,0.00,WeatherDisplay:10.37,2013-07-22 06:15:00,
2013-07-22 02:20:00,56.7,41.2,30.02,ESE,112,0.0,0.0,56,0.00,BKN,,0.00,WeatherDisplay:10.37,2013-07-22 06:20:00,
2013-07-22 02:25:00,56.6,42.0,30.02,West,270,0.0,0.0,58,0.00,BKN,,0.00,WeatherDisplay:10.37,2013-07-22 06:25:00,
2013-07-22 02:30:00,56.5,41.0,30.02,SE,135,0.0,0.0,56,0.00,BKN,,0.00,WeatherDisplay:10.37,2013-07-22 06:30:00,
2013-07-22 02:35:00,56.8,41.7,30.02,West,270,0.0,0.0,57,0.00,BKN,,0.00,WeatherDisplay:10.37,2013-07-22 06:35:00,
2013-07-22 02:40:00,56.7,42.1,30.02,SW,225,0.0,0.0,58,0.00,BKN,,0.00,WeatherDisplay:10.37,2013-07-22 06:40:00,
2013-07-22 02:45:00,56.4,41.3,30.02,ESE,112,0.0,0.0,57,0.00,BKN,,0.00,WeatherDisplay:10.37,2013-07-22 06:45:00,
2013-07-22 02:50:00,56.4,40.8,30.02,SW,225,0.0,0.0,56,0.00,BKN,,0.00,WeatherDisplay:10.37,2013-07-22 06:50:00,
2013-07-22 02:55:00,56.2,40.7,30.02,SSE,158,0.0,0.0,56,0.00,BKN,,0.00,WeatherDisplay:10.37,2013-07-22 06:55:00,
2013-07-22 03:00:00,56.1,41.1,30.02,SW,225,0.0,0.0,57,0.00,BKN,,0.00,WeatherDisplay:10.37,2013-07-22 07:00:00,
2013-07-22 03:05:00,56.1,41.0,30.02,SW,225,0.0,0.0,57,0.00,FEW,,0.00,WeatherDisplay:10.37,2013-07-22 07:05:00,
2013-07-22 03:10:00,56.1,41.1,30.02,South,180,0.0,0.0,57,0.00,FEW,,0.00,WeatherDisplay:10.37,2013-07-22 07:10:00,
2013-07-22 03:15:00,56.0,40.9,30.02,South,180,3.5,3.5,57,0.00,FEW,,0.00,WeatherDisplay:10.37,2013-07-22 07:15:00,
2013-07-22 03:20:00,56.0,40.5,30.02,WSW,248,1.2,0.0,56,0.00,FEW,,0.00,WeatherDisplay:10.37,2013-07-22 07:20:00,
2013-07-22 03:25:00,56.0,40.9,30.02,SW,225,0.0,0.0,57,0.00,FEW,,0.00,WeatherDisplay:10.37,2013-07-22 07:25:00,
2013-07-22 03:30:00,56.0,40.9,30.02,WSW,248,1.2,0.0,57,0.00,FEW,,0.00,WeatherDisplay:10.37,2013-07-22 07:30:00,
2013-07-22 03:35:00,56.1,40.6,30.02,WSW,248,0.0,0.0,56,0.00,FEW,,0.00,WeatherDisplay:10.37,2013-07-22 07:35:00,
2013-07-22 03:40:00,56.2,41.2,30.02,SW,225,0.0,0.0,57,0.00,FEW,,0.00,WeatherDisplay:10.37,2013-07-22 07:40:00,
2013-07-22 03:45:00,56.3,41.3,30.02,SW,225,3.5,0.0,57,0.00,FEW,,0.00,WeatherDisplay:10.37,2013-07-22 07:45:00,
2013-07-22 03:50:00,56.4,41.4,30.02,SSW,202,0.0,0.0,57,0.00,FEW,,0.00,WeatherDisplay:10.37,2013-07-22 07:50:00,
2013-07-22 03:55:00,56.6,41.5,30.02,SSE,158,0.0,0.0,57,0.00,FEW,,0.00,WeatherDisplay:10.37,2013-07-22 07:55:00,
2013-07-22 04:00:00,56.5,41.4,30.02,South,180,0.0,0.0,57,0.00,FEW,,0.00,WeatherDisplay:10.37,2013-07-22 08:00:00,
2013-07-22 04:05:00,56.6,41.5,30.01,SW,225,0.0,0.0,57,0.00,BKN,,0.00,WeatherDisplay:10.37,2013-07-22 08:05:00,
2013-07-22 04:10:00,56.7,41.2,30.01,SSW,202,0.0,0.0,56,0.00,BKN,,0.00,WeatherDisplay:10.37,2013-07-22 08:10:00,
2013-07-22 04:15:00,56.9,41.8,30.01,West,270,0.0,0.0,57,0.00,BKN,,0.00,WeatherDisplay:10.37,2013-07-22 08:15:00,
2013-07-22 04:20:00,57.0,41.9,30.01,SW,225,3.5,3.5,57,0.00,BKN,,0.00,WeatherDisplay:10.37,2013-07-22 08:20:00,
2013-07-22 04:25:00,57.1,41.5,30.01,SW,225,3.5,3.5,56,0.00,BKN,,0.00,WeatherDisplay:10.37,2013-07-22 08:25:00,
2013-07-22 04:30:00,57.1,41.6,30.01,WSW,248,0.0,0.0,56,0.00,BKN,,0.00,WeatherDisplay:10.37,2013-07-22 08:30:00,
2013-07-22 04:35:00,56.9,40.9,30.01,SW,225,0.0,0.0,55,0.00,BKN,,0.00,WeatherDisplay:10.37,2013-07-22 08:35:00,
2013-07-22 04:40:00,56.7,41.2,30.01,WSW,248,3.5,3.5,56,0.00,BKN,,0.00,WeatherDisplay:10.37,2013-07-22 08:40:00,
2013-07-22 04:45:00,56.4,40.9,30.01,SSW,202,1.2,1.2,56,0.00,BKN,,0.00,WeatherDisplay:10.37,2013-07-22 08:45:00,
2013-07-22 04:50:00,56.3,40.8,30.01,South,180,0.0,0.0,56,0.00,BKN,,0.00,WeatherDisplay:10.37,2013-07-22 08:50:00,
2013-07-22 04:55:00,56.2,40.7,30.01,SSE,158,3.5,3.5,56,0.00,BKN,,0.00,WeatherDisplay:10.37,2013-07-22 08:55:00,
2013-07-22 05:00:00,56.1,40.6,30.01,SW,225,1.2,1.2,56,0.00,BKN,,0.00,WeatherDisplay:10.37,2013-07-22 09:00:00,
2013-07-22 05:05:00,56.1,40.6,30.02,WSW,248,3.5,3.5,56,0.00,BKN,,0.00,WeatherDisplay:10.37,2013-07-22 09:05:00,
2013-07-22 05:10:00,56.1,40.6,30.02,SW,225,0.0,0.0,56,0.00,BKN,,0.00,WeatherDisplay:10.37,2013-07-22 09:10:00,
2013-07-22 05:15:00,56.0,54.0,30.02,SW,225,0.0,0.0,93,0.00,BKN,,0.00,WeatherDisplay:10.37,2013-07-22 09:15:00,
2013-07-22 05:20:00,56.2,41.1,30.02,WSW,248,1.5,1.5,57,0.00,BKN,,0.00,WeatherDisplay:10.37,2013-07-22 09:20:00,
2013-07-22 05:25:00,56.2,41.1,30.02,SW,225,0.0,0.0,57,0.00,BKN,,0.00,WeatherDisplay:10.37,2013-07-22 09:25:00,
2013-07-22 05:30:00,56.6,41.5,30.02,South,180,3.5,3.5,57,0.00,BKN,,0.00,WeatherDisplay:10.37,2013-07-22 09:30:00,
2013-07-22 05:35:00,56.8,41.3,30.02,WSW,248,1.6,1.6,56,0.00,BKN,,0.00,WeatherDisplay:10.37,2013-07-22 09:35:00,
2013-07-22 05:40:00,57.4,41.8,30.02,WSW,248,3.5,3.5,56,0.00,BKN,,0.00,WeatherDisplay:10.37,2013-07-22 09:40:00,
2013-07-22 05:45:00,57.7,42.5,30.02,ESE,112,0.0,0.0,57,0.00,BKN,,0.00,WeatherDisplay:10.37,2013-07-22 09:45:00,
2013-07-22 05:50:00,57.8,42.2,30.02,SW,225,1.2,1.2,56,0.00,BKN,,0.00,WeatherDisplay:10.37,2013-07-22 09:50:00,
2013-07-22 05:55:00,58.0,42.0,30.02,SW,225,3.5,3.5,55,0.00,BKN,,0.00,WeatherDisplay:10.37,2013-07-22 09:55:00,
2013-07-22 06:00:00,58.0,42.4,30.02,SW,225,0.0,0.0,56,0.00,BKN,,0.00,WeatherDisplay:10.37,2013-07-22 10:00:00,
2013-07-22 06:05:00,58.0,42.4,30.02,WSW,248,0.0,0.0,56,0.00,BKN,,0.00,WeatherDisplay:10.37,2013-07-22 10:05:00,
2013-07-22 06:10:00,57.9,42.3,30.02,WNW,292,0.0,0.0,56,0.00,BKN,,0.00,WeatherDisplay:10.37,2013-07-22 10:10:00,
2013-07-22 06:15:00,57.6,42.5,30.02,SE,135,0.0,0.0,57,0.00,BKN,,0.00,WeatherDisplay:10.37,2013-07-22 10:15:00,
2013-07-22 06:20:00,57.6,42.9,30.02,SSW,202,1.7,1.7,58,0.00,BKN,,0.00,WeatherDisplay:10.37,2013-07-22 10:20:00,
2013-07-22 06:25:00,57.7,42.1,30.02,SW,225,2.3,2.3,56,0.00,BKN,,0.00,WeatherDisplay:10.37,2013-07-22 10:25:00,
2013-07-22 06:30:00,57.9,42.3,30.02,SW,225,3.5,3.5,56,0.00,BKN,,0.00,WeatherDisplay:10.37,2013-07-22 10:30:00,
2013-07-22 06:35:00,58.1,42.5,30.02,SSE,158,1.7,1.7,56,0.00,BKN,,0.00,WeatherDisplay:10.37,2013-07-22 10:35:00,
2013-07-22 06:40:00,58.1,42.5,30.02,WSW,248,1.5,0.0,56,0.00,BKN,,0.00,WeatherDisplay:10.37,2013-07-22 10:40:00,
2013-07-22 06:46:00,58.0,42.8,30.02,West,270,0.0,0.0,57,0.01,RA,,0.01,WeatherDisplay:10.37,2013-07-22 10:46:00,
2013-07-22 06:51:00,58.0,42.4,30.02,ENE,68,0.0,0.0,56,0.01,RA,,0.01,WeatherDisplay:10.37,2013-07-22 10:51:00,
2013-07-22 06:56:00,58.0,42.4,30.02,NNW,338,0.0,0.0,56,0.01,BKN,,0.01,WeatherDisplay:10.37,2013-07-22 10:56:00,
2013-07-22 07:01:00,58.0,42.8,30.02,South,180,0.0,0.0,57,0.01,BKN,,0.01,WeatherDisplay:10.37,2013-07-22 11:01:00,
2013-07-22 07:06:00,57.9,55.9,30.04,SE,135,0.0,0.0,93,0.02,RA,,0.02,WeatherDisplay:10.37,2013-07-22 11:06:00,
2013-07-22 07:11:00,58.2,42.5,30.04,SW,225,0.0,0.0,56,0.02,RA,,0.02,WeatherDisplay:10.37,2013-07-22 11:11:00,
2013-07-22 07:16:00,58.4,42.8,30.04,WSW,248,0.0,0.0,56,0.02,OVC,,0.02,WeatherDisplay:10.37,2013-07-22 11:16:00,
2013-07-22 07:21:00,58.6,56.6,30.04,SE,135,0.0,0.0,93,0.03,RA,,0.03,WeatherDisplay:10.37,2013-07-22 11:21:00,
2013-07-22 07:26:00,58.6,56.5,30.04,SSW,202,0.0,0.0,93,0.03,RA,,0.03,WeatherDisplay:10.37,2013-07-22 11:26:00,
2013-07-22 07:31:00,58.8,43.1,30.04,WSW,248,0.0,0.0,56,0.03,OVC,,0.03,WeatherDisplay:10.37,2013-07-22 11:31:00,
2013-07-22 07:36:00,58.9,56.9,30.04,SSW,202,0.0,0.0,93,0.04,RA,,0.04,WeatherDisplay:10.37,2013-07-22 11:36:00,
2013-07-22 07:41:00,58.9,43.2,30.04,NNE,22,3.5,3.5,56,0.04,RA,,0.04,WeatherDisplay:10.37,2013-07-22 11:41:00,
2013-07-22 07:46:00,58.9,56.9,30.04,SSE,158,0.0,0.0,93,0.03,OVC,,0.04,WeatherDisplay:10.37,2013-07-22 11:46:00,
2013-07-22 07:51:00,58.9,56.9,30.04,NW,315,0.0,0.0,93,0.03,OVC,,0.04,WeatherDisplay:10.37,2013-07-22 11:51:00,
2013-07-22 07:56:00,59.3,44.0,30.04,SSW,202,0.0,0.0,57,0.03,OVC,,0.04,WeatherDisplay:10.37,2013-07-22 11:56:00,
2013-07-22 08:01:00,59.3,44.5,30.04,WNW,292,0.0,0.0,58,0.03,OVC,,0.04,WeatherDisplay:10.37,2013-07-22 12:01:00,
2013-07-22 08:06:00,59.6,44.8,30.04,South,180,0.0,0.0,58,0.02,OVC,,0.04,WeatherDisplay:10.37,2013-07-22 12:06:00,
2013-07-22 08:11:00,59.6,44.4,30.04,SW,225,0.0,0.0,57,0.02,OVC,,0.04,WeatherDisplay:10.37,2013-07-22 12:11:00,
2013-07-22 08:16:00,60.1,46.1,30.04,WSW,248,0.0,0.0,60,0.02,OVC,,0.04,WeatherDisplay:10.37,2013-07-22 12:16:00,
2013-07-22 08:21:00,60.5,58.5,30.04,WNW,292,0.0,0.0,93,0.01,OVC,,0.04,WeatherDisplay:10.37,2013-07-22 12:21:00,
2013-07-22 08:26:00,60.8,47.3,30.04,ENE,68,0.0,0.0,61,0.01,OVC,,0.04,WeatherDisplay:10.37,2013-07-22 12:26:00,
2013-07-22 08:31:00,61.4,59.4,30.04,SSE,158,3.5,3.5,93,0.01,OVC,,0.04,WeatherDisplay:10.37,2013-07-22 12:31:00,
2013-07-22 08:36:00,62.2,60.2,30.04,West,270,1.2,1.2,93,0.00,OVC,,0.04,WeatherDisplay:10.37,2013-07-22 12:36:00,
2013-07-22 08:41:00,63.0,49.8,30.04,NNE,22,1.2,1.2,62,0.00,OVC,,0.04,WeatherDisplay:10.37,2013-07-22 12:41:00,
2013-07-22 08:46:00,63.6,61.6,30.04,North,360,1.2,1.2,93,0.00,OVC,,0.04,WeatherDisplay:10.37,2013-07-22 12:46:00,
2013-07-22 08:51:00,64.9,52.0,30.04,SSW,202,0.0,0.0,63,0.00,OVC,,0.04,WeatherDisplay:10.37,2013-07-22 12:51:00,
2013-07-22 08:56:00,66.0,63.9,30.04,NNW,338,0.0,0.0,93,0.00,OVC,,0.04,WeatherDisplay:10.37,2013-07-22 12:56:00,
2013-07-22 09:01:00,66.7,54.1,30.04,West,270,4.6,4.6,64,0.00,OVC,,0.04,WeatherDisplay:10.37,2013-07-22 13:01:00,
2013-07-22 09:06:00,67.0,65.0,30.03,NW,315,4.6,4.6,93,0.00,OVC,,0.04,WeatherDisplay:10.37,2013-07-22 13:06:00,
2013-07-22 09:11:00,68.0,54.9,30.03,NW,315,1.7,1.7,63,0.00,OVC,,0.04,WeatherDisplay:10.37,2013-07-22 13:11:00,
2013-07-22 09:17:00,67.8,65.7,30.03,NW,315,0.0,0.0,93,0.00,OVC,,0.04,WeatherDisplay:10.37,2013-07-22 13:17:00,
2013-07-22 09:22:00,69.1,67.0,30.03,ENE,68,0.0,0.0,93,0.00,OVC,,0.04,WeatherDisplay:10.37,2013-07-22 13:22:00,
2013-07-22 09:27:00,70.3,68.1,30.03,ENE,68,1.2,0.0,93,0.00,OVC,,0.04,WeatherDisplay:10.37,2013-07-22 13:27:00,
2013-07-22 09:32:00,70.6,68.5,30.03,SSW,202,3.5,3.5,93,0.00,OVC,,0.04,WeatherDisplay:10.37,2013-07-22 13:32:00,
2013-07-22 09:37:00,70.7,56.1,30.03,West,270,1.2,1.2,60,0.00,OVC,,0.04,WeatherDisplay:10.37,2013-07-22 13:37:00,
2013-07-22 09:42:00,70.9,68.8,30.03,NW,315,3.5,3.5,93,0.00,OVC,,0.04,WeatherDisplay:10.37,2013-07-22 13:42:00,
2013-07-22 09:47:00,71.3,57.6,30.03,South,180,3.5,3.5,62,0.00,OVC,,0.04,WeatherDisplay:10.37,2013-07-22 13:47:00,
2013-07-22 09:52:00,71.7,69.5,30.03,North,360,3.5,3.5,93,0.00,OVC,,0.04,WeatherDisplay:10.37,2013-07-22 13:52:00,
2013-07-22 09:57:00,71.2,69.0,30.03,NE,45,5.8,5.8,93,0.00,OVC,,0.04,WeatherDisplay:10.37,2013-07-22 13:57:00,
2013-07-22 10:02:00,71.4,67.7,30.02,North,360,3.5,3.5,88,0.00,OVC,,0.04,WeatherDisplay:10.37,2013-07-22 14:02:00,
2013-07-22 10:07:00,71.7,67.9,30.02,NW,315,4.6,4.6,88,0.00,OVC,,0.04,WeatherDisplay:10.37,2013-07-22 14:07:00,
2013-07-22 10:12:00,72.0,68.2,30.02,NW,315,5.8,5.8,88,0.00,OVC,,0.04,WeatherDisplay:10.37,2013-07-22 14:12:00,
2013-07-22 10:17:00,73.0,58.2,30.02,NW,315,4.6,4.6,60,0.00,OVC,,0.04,WeatherDisplay:10.37,2013-07-22 14:17:00,
2013-07-22 10:22:00,72.7,58.4,30.02,NNE,22,5.8,5.8,61,0.00,OVC,,0.04,WeatherDisplay:10.37,2013-07-22 14:22:00,
2013-07-22 10:27:00,73.5,59.2,30.02,NW,315,4.6,4.6,61,0.00,OVC,,0.04,WeatherDisplay:10.37,2013-07-22 14:27:00,
2013-07-22 10:32:00,74.8,59.9,30.02,NW,315,1.2,1.2,60,0.00,OVC,,0.04,WeatherDisplay:10.37,2013-07-22 14:32:00,
2013-07-22 10:37:00,75.4,71.6,30.02,SSE,158,4.6,4.6,88,0.00,OVC,,0.04,WeatherDisplay:10.37,2013-07-22 14:37:00,
2013-07-22 10:42:00,75.7,71.8,30.02,NW,315,6.9,6.9,88,0.00,OVC,,0.04,WeatherDisplay:10.37,2013-07-22 14:42:00,
2013-07-22 10:47:00,75.8,72.0,30.02,NE,45,8.1,8.1,88,0.00,OVC,,0.04,WeatherDisplay:10.37,2013-07-22 14:47:00,
2013-07-22 10:52:00,76.0,72.2,30.02,South,180,9.2,9.2,88,0.00,OVC,,0.04,WeatherDisplay:10.37,2013-07-22 14:52:00,
2013-07-22 10:57:00,76.3,72.5,30.02,East,90,10.4,10.4,88,0.00,OVC,,0.04,WeatherDisplay:10.37,2013-07-22 14:57:00,
2013-07-22 11:02:00,76.8,69.4,30.00,SSE,158,1.6,1.6,78,0.00,CLR,,0.04,WeatherDisplay:10.37,2013-07-22 15:02:00,
2013-07-22 11:07:00,78.1,63.6,30.00,SW,225,11.5,11.5,61,0.00,CLR,,0.04,WeatherDisplay:10.37,2013-07-22 15:07:00,
2013-07-22 11:12:00,78.4,70.9,30.00,ESE,112,5.8,5.8,78,0.00,CLR,,0.04,WeatherDisplay:10.37,2013-07-22 15:12:00,
2013-07-22 11:17:00,78.5,63.9,30.00,SSE,158,4.6,4.6,61,0.00,CLR,,0.04,WeatherDisplay:10.37,2013-07-22 15:17:00,
2013-07-22 11:22:00,79.2,71.7,30.00,East,90,6.9,6.9,78,0.00,CLR,,0.04,WeatherDisplay:10.37,2013-07-22 15:22:00,
2013-07-22 11:27:00,79.5,65.3,30.00,SE,135,4.5,4.5,62,0.00,SCT,,0.04,WeatherDisplay:10.37,2013-07-22 15:27:00,
2013-07-22 11:32:00,80.1,65.9,30.00,SW,225,4.6,4.6,62,0.00,SCT,,0.04,WeatherDisplay:10.37,2013-07-22 15:32:00,
2013-07-22 11:37:00,80.6,65.9,30.00,ESE,112,3.5,3.5,61,0.00,SCT,,0.04,WeatherDisplay:10.37,2013-07-22 15:37:00,
2013-07-22 11:42:00,80.7,73.2,30.00,ENE,68,6.9,6.9,78,0.00,SCT,,0.04,WeatherDisplay:10.37,2013-07-22 15:42:00,
2013-07-22 11:47:00,80.2,65.5,30.00,SE,135,12.7,12.7,61,0.00,SCT,,0.04,WeatherDisplay:10.37,2013-07-22 15:47:00,
2013-07-22 11:52:00,80.5,73.0,30.00,South,180,10.4,10.4,78,0.00,SCT,,0.04,WeatherDisplay:10.37,2013-07-22 15:52:00,
2013-07-22 11:57:00,81.0,66.7,30.00,NW,315,10.4,10.4,62,0.00,SCT,,0.04,WeatherDisplay:10.37,2013-07-22 15:57:00,
2013-07-22 12:02:00,81.1,73.6,29.99,SW,225,6.9,6.9,78,0.00,BKN,,0.04,WeatherDisplay:10.37,2013-07-22 16:02:00,
2013-07-22 12:07:00,80.3,72.8,29.99,East,90,3.5,3.5,78,0.00,BKN,,0.04,WeatherDisplay:10.37,2013-07-22 16:07:00,
2013-07-22 12:12:00,80.3,72.8,29.99,South,180,5.8,5.8,78,0.00,BKN,,0.04,WeatherDisplay:10.37,2013-07-22 16:12:00,
2013-07-22 12:17:00,80.0,65.3,29.99,SE,135,5.0,5.0,61,0.00,BKN,,0.04,WeatherDisplay:10.37,2013-07-22 16:17:00,
2013-07-22 12:22:00,80.5,65.9,27.28,SSE,158,6.9,6.9,61,0.00,BKN,,0.04,WeatherDisplay:10.37,2013-07-22 16:22:00,
2013-07-22 12:27:00,80.9,66.7,29.99,South,180,11.5,11.5,62,0.00,BKN,,0.04,WeatherDisplay:10.37,2013-07-22 16:27:00,
2013-07-22 12:32:00,80.0,65.4,29.99,East,90,8.1,8.1,61,0.00,BKN,,0.04,WeatherDisplay:10.37,2013-07-22 16:32:00,
2013-07-22 12:37:00,81.3,73.8,29.99,South,180,3.5,3.5,78,0.00,BKN,,0.04,WeatherDisplay:10.37,2013-07-22 16:37:00,
2013-07-22 12:43:00,81.6,74.1,29.99,ENE,68,9.2,9.2,78,0.00,BKN,,0.04,WeatherDisplay:10.37,2013-07-22 16:43:00,
2013-07-22 12:48:00,81.2,73.7,29.99,SSW,202,5.2,5.2,78,0.00,BKN,,0.04,WeatherDisplay:10.37,2013-07-22 16:48:00,
2013-07-22 12:53:00,81.1,66.3,29.99,East,90,8.1,8.1,61,0.00,BKN,,0.04,WeatherDisplay:10.37,2013-07-22 16:53:00,
2013-07-22 12:58:00,82.1,74.5,29.99,SE,135,9.2,9.2,78,0.00,BKN,,0.04,WeatherDisplay:10.37,2013-07-22 16:58:00,
2013-07-22 13:03:00,82.0,72.4,29.98,ESE,112,4.6,4.6,73,0.00,OVC,,0.04,WeatherDisplay:10.37,2013-07-22 17:03:00,
2013-07-22 13:08:00,82.1,72.5,29.98,SE,135,6.9,6.9,73,0.00,OVC,,0.04,WeatherDisplay:10.37,2013-07-22 17:08:00,
2013-07-22 13:13:00,82.2,72.7,29.98,East,90,8.1,8.1,73,0.00,OVC,,0.04,WeatherDisplay:10.37,2013-07-22 17:13:00,
2013-07-22 13:18:00,82.1,72.5,29.98,SW,225,4.6,4.6,73,0.00,OVC,,0.04,WeatherDisplay:10.37,2013-07-22 17:18:00,
2013-07-22 13:23:00,82.0,72.5,29.98,SE,135,8.1,8.1,73,0.00,OVC,,0.04,WeatherDisplay:10.37,2013-07-22 17:23:00,
2013-07-22 13:28:00,82.2,72.7,29.98,SW,225,5.8,5.8,73,0.00,OVC,,0.04,WeatherDisplay:10.37,2013-07-22 17:28:00,
2013-07-22 13:33:00,82.2,72.7,29.98,SSW,202,6.9,6.9,73,0.00,OVC,,0.04,WeatherDisplay:10.37,2013-07-22 17:33:00,
2013-07-22 13:39:00,82.3,68.0,29.98,SW,225,6.0,6.0,62,0.00,OVC,,0.04,WeatherDisplay:10.37,2013-07-22 17:39:00,
2013-07-22 13:44:00,82.9,73.3,29.98,East,90,5.8,5.8,73,0.00,OVC,,0.04,WeatherDisplay:10.37,2013-07-22 17:44:00,
2013-07-22 13:49:00,83.5,74.0,29.98,ENE,68,11.8,11.8,73,0.00,OVC,,0.04,WeatherDisplay:10.37,2013-07-22 17:49:00,
2013-07-22 13:54:00,83.9,69.4,29.98,SSW,202,13.8,13.8,62,0.00,OVC,,0.04,WeatherDisplay:10.37,2013-07-22 17:54:00,
2013-07-22 13:59:00,84.3,74.7,29.98,ENE,68,8.1,8.1,73,0.00,OVC,,0.04,WeatherDisplay:10.37,2013-07-22 17:59:00,
2013-07-22 14:05:00,85.0,70.1,29.96,SE,135,10.7,10.7,61,0.00,BKN,,0.04,WeatherDisplay:10.37,2013-07-22 18:05:00,
2013-07-22 14:10:00,84.5,70.0,29.96,SSE,158,5.9,5.9,62,0.00,BKN,,0.04,WeatherDisplay:10.37,2013-07-22 18:10:00,
2013-07-22 14:15:00,84.0,72.3,29.96,East,90,8.1,8.1,68,0.00,BKN,,0.04,WeatherDisplay:10.37,2013-07-22 18:15:00,
2013-07-22 14:20:00,83.0,70.0,29.96,SSE,158,5.8,5.8,65,0.00,BKN,,0.04,WeatherDisplay:10.37,2013-07-22 18:20:00,
2013-07-22 14:25:00,82.2,67.4,29.96,SSE,158,3.5,3.5,61,0.00,BKN,,0.04,WeatherDisplay:10.37,2013-07-22 18:25:00,
2013-07-22 14:30:00,81.3,67.0,29.96,North,360,4.6,4.6,62,0.00,BKN,,0.04,WeatherDisplay:10.37,2013-07-22 18:30:00,
2013-07-22 14:35:00,80.7,67.8,29.96,East,90,3.5,3.5,65,0.00,BKN,,0.04,WeatherDisplay:10.37,2013-07-22 18:35:00,
2013-07-22 14:41:00,79.8,66.5,29.96,South,180,4.6,4.6,64,0.00,BKN,,0.04,WeatherDisplay:10.37,2013-07-22 18:41:00,
2013-07-22 14:47:00,80.0,66.7,29.96,ESE,112,1.2,1.2,64,0.00,BKN,,0.04,WeatherDisplay:10.37,2013-07-22 18:47:00,
2013-07-22 14:52:00,79.8,70.4,29.96,SW,225,3.5,3.5,73,0.00,BKN,,0.04,WeatherDisplay:10.37,2013-07-22 18:52:00,
2013-07-22 14:58:00,79.4,70.0,29.96,West,270,1.2,1.2,73,0.00,BKN,,0.04,WeatherDisplay:10.37,2013-07-22 18:58:00,
2013-07-22 15:03:00,79.1,68.0,29.95,West,270,0.0,0.0,69,0.00,SCT,,0.04,WeatherDisplay:10.37,2013-07-22 19:03:00,
2013-07-22 15:08:00,78.1,67.1,29.95,WNW,292,0.0,0.0,69,0.00,SCT,,0.04,WeatherDisplay:10.37,2013-07-22 19:08:00,
2013-07-22 15:14:00,77.8,66.9,29.95,East,90,0.0,0.0,69,0.00,SCT,,0.04,WeatherDisplay:10.37,2013-07-22 19:14:00,
2013-07-22 15:19:00,77.3,66.4,29.95,SW,225,0.0,0.0,69,0.00,SCT,,0.04,WeatherDisplay:10.37,2013-07-22 19:19:00,
2013-07-22 15:25:00,76.6,62.6,29.95,SSW,202,3.5,3.5,62,0.01,RA,,0.05,WeatherDisplay:10.37,2013-07-22 19:25:00,
2013-07-22 15:30:00,75.3,62.3,29.95,East,90,3.5,3.5,64,0.02,RA,,0.06,WeatherDisplay:10.37,2013-07-22 19:30:00,
2013-07-22 15:36:00,74.5,63.6,29.95,East,90,0.0,0.0,69,0.05,RA,,0.09,WeatherDisplay:10.37,2013-07-22 19:36:00,
2013-07-22 15:41:00,74.6,63.8,29.95,South,180,1.2,0.0,69,0.05,RA,,0.09,WeatherDisplay:10.37,2013-07-22 19:41:00,
2013-07-22 15:46:00,76.6,65.7,29.95,SW,225,3.5,3.5,69,0.05,SCT,,0.09,WeatherDisplay:10.37,2013-07-22 19:46:00,
2013-07-22 15:51:00,78.5,67.4,29.95,WNW,292,3.3,3.3,69,0.05,SCT,,0.09,WeatherDisplay:10.37,2013-07-22 19:51:00,
2013-07-22 15:56:00,79.4,68.3,29.95,WNW,292,4.6,4.6,69,0.05,SCT,,0.09,WeatherDisplay:10.37,2013-07-22 19:56:00,
2013-07-22 16:01:00,80.7,68.3,29.95,South,180,3.1,3.1,66,0.05,SCT,,0.09,WeatherDisplay:10.37,2013-07-22 20:01:00,
2013-07-22 16:06:00,81.8,70.6,29.93,SSW,202,4.6,4.6,69,0.05,SCT,,0.09,WeatherDisplay:10.37,2013-07-22 20:06:00,
2013-07-22 16:11:00,80.8,67.5,29.93,SW,225,1.7,1.7,64,0.05,SCT,,0.09,WeatherDisplay:10.37,2013-07-22 20:11:00,
2013-07-22 16:16:00,80.1,67.3,29.93,West,270,1.2,1.2,65,0.05,SCT,,0.09,WeatherDisplay:10.37,2013-07-22 20:16:00,
2013-07-22 16:17:00,80.0,68.9,29.93,West,270,0.0,0.0,69,0.05,SCT,,0.09,WeatherDisplay:10.37,2013-07-22 20:17:00,
2013-07-22 16:20:00,80.5,67.6,29.93,NW,315,3.5,3.5,65,0.05,SCT,,0.09,WeatherDisplay:10.37,2013-07-22 20:20:00,
2013-07-22 16:21:00,80.2,67.4,29.93,NW,315,3.5,3.5,65,0.05,SCT,,0.09,WeatherDisplay:10.37,2013-07-22 20:21:00,
2013-07-22 16:22:00,80.5,69.4,29.93,WSW,248,3.5,3.5,69,0.05,SCT,,0.09,WeatherDisplay:10.37,2013-07-22 20:22:00,
2013-07-22 16:23:00,81.2,70.1,29.93,South,180,3.5,3.5,69,0.05,SCT,,0.09,WeatherDisplay:10.37,2013-07-22 20:23:00,
2013-07-22 16:28:00,81.1,69.9,29.93,South,180,4.6,4.6,69,0.03,SCT,,0.09,WeatherDisplay:10.37,2013-07-22 20:28:00,
2013-07-22 16:33:00,81.8,70.6,29.93,SSW,202,6.3,6.3,69,0.00,SCT,,0.09,WeatherDisplay:10.37,2013-07-22 20:33:00,
2013-07-22 16:38:00,82.2,71.0,29.93,East,90,6.9,6.9,69,0.00,SCT,,0.09,WeatherDisplay:10.37,2013-07-22 20:38:00,
2013-07-22 16:44:00,82.2,68.4,29.93,SW,225,4.6,4.6,63,0.00,SCT,,0.09,WeatherDisplay:10.37,2013-07-22 20:44:00,
2013-07-22 16:48:00,81.3,67.9,29.93,SSE,158,5.8,5.8,64,0.00,SCT,,0.09,WeatherDisplay:10.37,2013-07-22 20:48:00,
2013-07-22 16:53:00,81.1,70.0,29.93,West,270,3.0,3.0,69,0.00,SCT,,0.09,WeatherDisplay:10.37,2013-07-22 20:53:00,
2013-07-22 16:58:00,81.9,70.7,29.93,NE,45,6.9,6.9,69,0.00,SCT,,0.09,WeatherDisplay:10.37,2013-07-22 20:58:00,
2013-07-22 17:04:00,81.8,68.9,29.91,South,180,3.5,3.5,65,0.00,CLR,,0.09,WeatherDisplay:10.37,2013-07-22 21:04:00,
2013-07-22 17:09:00,82.0,68.6,29.91,SSE,158,4.6,4.6,64,0.00,CLR,,0.09,WeatherDisplay:10.37,2013-07-22 21:09:00,
2013-07-22 17:14:00,81.6,68.7,29.91,West,270,3.5,3.5,65,0.00,CLR,,0.09,WeatherDisplay:10.37,2013-07-22 21:14:00,
2013-07-22 17:19:00,81.8,68.9,29.91,South,180,5.8,5.8,65,0.00,CLR,,0.09,WeatherDisplay:10.37,2013-07-22 21:19:00,
2013-07-22 17:24:00,81.6,68.7,29.91,SE,135,8.1,8.1,65,0.00,CLR,,0.09,WeatherDisplay:10.37,2013-07-22 21:24:00,
2013-07-22 17:29:00,81.8,68.4,29.91,WNW,292,3.0,3.0,64,0.00,CLR,,0.09,WeatherDisplay:10.37,2013-07-22 21:29:00,
2013-07-22 17:34:00,81.7,68.8,29.91,SE,135,5.8,5.8,65,0.00,CLR,,0.09,WeatherDisplay:10.37,2013-07-22 21:34:00,
2013-07-22 17:39:00,81.7,68.8,29.91,West,270,3.5,3.5,65,0.00,CLR,,0.09,WeatherDisplay:10.37,2013-07-22 21:39:00,
2013-07-22 17:44:00,81.7,68.8,29.91,West,270,3.5,3.5,65,0.00,CLR,,0.09,WeatherDisplay:10.37,2013-07-22 21:44:00,
2013-07-22 17:49:00,81.6,68.7,29.91,West,270,9.2,9.2,65,0.00,CLR,,0.09,WeatherDisplay:10.37,2013-07-22 21:49:00,
2013-07-22 17:54:00,81.5,68.1,29.91,SSW,202,8.1,8.1,64,0.00,CLR,,0.09,WeatherDisplay:10.37,2013-07-22 21:54:00,
2013-07-22 17:59:00,81.6,68.7,29.91,South,180,4.6,4.6,65,0.00,CLR,,0.09,WeatherDisplay:10.37,2013-07-22 21:59:00,
2013-07-22 18:04:00,81.4,68.0,27.28,SW,225,3.5,3.5,64,0.00,CLR,,0.09,WeatherDisplay:10.37,2013-07-22 22:04:00,
2013-07-22 18:09:00,81.3,68.4,29.89,ESE,112,4.6,4.6,65,0.00,CLR,,0.09,WeatherDisplay:10.37,2013-07-22 22:09:00,
2013-07-22 18:14:00,80.4,66.2,29.89,SE,135,5.8,5.8,62,0.00,CLR,,0.09,WeatherDisplay:10.37,2013-07-22 22:14:00,
2013-07-22 18:19:00,79.4,65.2,29.89,SSW,202,3.5,3.5,62,0.00,CLR,,0.09,WeatherDisplay:10.37,2013-07-22 22:19:00,
2013-07-22 18:24:00,78.8,66.0,29.89,NNE,22,1.5,1.5,65,0.00,CLR,,0.09,WeatherDisplay:10.37,2013-07-22 22:24:00,
2013-07-22 18:29:00,78.2,65.5,29.89,South,180,1.2,1.2,65,0.00,CLR,,0.09,WeatherDisplay:10.37,2013-07-22 22:29:00,
2013-07-22 18:34:00,77.7,65.0,29.89,WSW,248,5.8,5.8,65,0.00,CLR,,0.09,WeatherDisplay:10.37,2013-07-22 22:34:00,
2013-07-22 18:39:00,77.3,64.7,29.89,South,180,1.2,1.2,65,0.00,CLR,,0.09,WeatherDisplay:10.37,2013-07-22 22:39:00,
2013-07-22 18:44:00,77.2,62.7,29.89,SW,225,3.5,3.5,61,0.00,CLR,,0.09,WeatherDisplay:10.37,2013-07-22 22:44:00,
2013-07-22 18:49:00,76.4,62.0,29.89,South,180,3.5,3.5,61,0.00,CLR,,0.09,WeatherDisplay:10.37,2013-07-22 22:49:00,
2013-07-22 18:54:00,76.2,61.7,29.89,West,270,4.6,4.6,61,0.00,CLR,,0.09,WeatherDisplay:10.37,2013-07-22 22:54:00,
2013-07-22 18:59:00,75.7,60.8,29.89,SW,225,3.5,3.5,60,0.00,CLR,,0.09,WeatherDisplay:10.37,2013-07-22 22:59:00,
2013-07-22 19:04:00,75.5,61.6,27.28,SSE,158,1.2,1.2,62,0.00,CLR,,0.09,WeatherDisplay:10.37,2013-07-22 23:04:00,
2013-07-22 19:09:00,75.2,65.9,29.89,South,180,6.9,6.9,73,0.00,CLR,,0.09,WeatherDisplay:10.37,2013-07-22 23:09:00,
2013-07-22 19:14:00,74.9,60.1,29.89,SSW,202,3.5,3.5,60,0.00,CLR,,0.09,WeatherDisplay:10.37,2013-07-22 23:14:00,
2013-07-22 19:19:00,74.5,60.2,29.89,SW,225,1.2,1.2,61,0.00,CLR,,0.09,WeatherDisplay:10.37,2013-07-22 23:19:00,
2013-07-22 19:24:00,74.2,65.0,29.89,South,180,6.9,6.9,73,0.00,CLR,,0.09,WeatherDisplay:10.37,2013-07-22 23:24:00,
2013-07-22 19:29:00,74.2,65.0,29.89,SW,225,3.5,3.5,73,0.00,CLR,,0.09,WeatherDisplay:10.37,2013-07-22 23:29:00,
2013-07-22 19:34:00,73.7,58.0,29.89,SSW,202,0.0,0.0,58,0.00,CLR,,0.09,WeatherDisplay:10.37,2013-07-22 23:34:00,
2013-07-22 19:40:00,73.3,57.7,29.89,SSW,202,1.2,0.0,58,0.00,CLR,,0.09,WeatherDisplay:10.37,2013-07-22 23:40:00,
2013-07-22 19:45:00,72.9,56.8,29.89,SE,135,0.0,0.0,57,0.00,CLR,,0.09,WeatherDisplay:10.37,2013-07-22 23:45:00,
2013-07-22 19:50:00,72.3,56.2,29.89,SSW,202,0.0,0.0,57,0.00,CLR,,0.09,WeatherDisplay:10.37,2013-07-22 23:50:00,
2013-07-22 19:55:00,71.9,55.8,29.89,SW,225,0.0,0.0,57,0.00,CLR,,0.09,WeatherDisplay:10.37,2013-07-22 23:55:00,
2013-07-22 20:00:00,71.5,55.5,29.89,West,270,0.0,0.0,57,0.00,CLR,,0.09,WeatherDisplay:10.37,2013-07-23 00:00:00,
2013-07-22 20:05:00,71.2,64.0,29.89,West,270,0.0,0.0,78,0.00,CLR,,0.09,WeatherDisplay:10.37,2013-07-23 00:05:00,
2013-07-22 20:10:00,70.9,54.9,29.89,SW,225,0.0,0.0,57,0.00,CLR,,0.09,WeatherDisplay:10.37,2013-07-23 00:10:00,
2013-07-22 20:15:00,70.6,63.4,29.89,SSW,202,0.0,0.0,78,0.00,CLR,,0.09,WeatherDisplay:10.37,2013-07-23 00:15:00,
2013-07-22 20:20:00,70.5,54.5,29.89,SW,225,0.0,0.0,57,0.00,CLR,,0.09,WeatherDisplay:10.37,2013-07-23 00:20:00,
2013-07-22 20:25:00,70.3,53.9,29.89,WSW,248,0.0,0.0,56,0.00,CLR,,0.09,WeatherDisplay:10.37,2013-07-23 00:25:00,
2013-07-22 20:30:00,70.4,54.4,29.89,SW,225,0.0,0.0,57,0.00,CLR,,0.09,WeatherDisplay:10.37,2013-07-23 00:30:00,
2013-07-22 20:36:00,69.7,62.6,29.89,SW,225,0.0,0.0,78,0.00,CLR,,0.09,WeatherDisplay:10.37,2013-07-23 00:36:00,
2013-07-22 20:41:00,69.9,62.7,29.89,West,270,0.0,0.0,78,0.00,CLR,,0.09,WeatherDisplay:10.37,2013-07-23 00:41:00,
2013-07-22 20:46:00,69.8,62.6,29.89,West,270,0.0,0.0,78,0.00,CLR,,0.09,WeatherDisplay:10.37,2013-07-23 00:46:00,
2013-07-22 20:51:00,69.9,54.4,29.89,South,180,1.2,1.2,58,0.00,CLR,,0.09,WeatherDisplay:10.37,2013-07-23 00:51:00,
2013-07-22 20:56:00,69.7,62.5,29.89,WSW,248,0.0,0.0,78,0.00,CLR,,0.09,WeatherDisplay:10.37,2013-07-23 00:56:00,
2013-07-22 21:01:00,69.5,53.6,29.89,SE,135,0.0,0.0,57,0.00,CLR,,0.09,WeatherDisplay:10.37,2013-07-23 01:01:00,
2013-07-22 21:06:00,69.3,62.1,29.89,South,180,0.0,0.0,78,0.00,FEW,,0.09,WeatherDisplay:10.37,2013-07-23 01:06:00,
2013-07-22 21:11:00,69.0,53.6,29.89,SSE,158,0.0,0.0,58,0.00,FEW,,0.09,WeatherDisplay:10.37,2013-07-23 01:11:00,
2013-07-22 21:16:00,69.0,61.8,29.89,SSE,158,0.0,0.0,78,0.00,FEW,,0.09,WeatherDisplay:10.37,2013-07-23 01:16:00,
2013-07-22 21:21:00,68.8,61.7,29.89,SW,225,0.0,0.0,78,0.00,FEW,,0.09,WeatherDisplay:10.37,2013-07-23 01:21:00,
2013-07-22 21:26:00,68.4,52.1,29.89,SW,225,0.0,0.0,56,0.00,FEW,,0.09,WeatherDisplay:10.37,2013-07-23 01:26:00,
2013-07-22 21:31:00,68.4,52.6,27.28,SSW,202,0.0,0.0,57,0.00,FEW,,0.09,WeatherDisplay:10.37,2013-07-23 01:31:00,
2013-07-22 21:36:00,68.3,53.0,29.89,WSW,248,0.0,0.0,58,0.00,FEW,,0.09,WeatherDisplay:10.37,2013-07-23 01:36:00,
2013-07-22 21:41:00,68.4,61.3,29.89,SW,225,0.0,0.0,78,0.00,FEW,,0.09,WeatherDisplay:10.37,2013-07-23 01:41:00,
2013-07-22 21:46:00,68.2,61.1,29.89,SSW,202,0.0,0.0,78,0.00,FEW,,0.09,WeatherDisplay:10.37,2013-07-23 01:46:00,
2013-07-22 21:51:00,68.3,52.5,29.89,SSE,158,0.0,0.0,57,0.00,FEW,,0.09,WeatherDisplay:10.37,2013-07-23 01:51:00,
2013-07-22 21:56:00,68.6,61.5,29.89,West,270,3.5,3.5,78,0.00,FEW,,0.09,WeatherDisplay:10.37,2013-07-23 01:56:00,
2013-07-22 22:01:00,68.7,53.4,29.89,South,180,1.6,1.6,58,0.00,FEW,,0.09,WeatherDisplay:10.37,2013-07-23 02:01:00,
2013-07-22 22:06:00,68.8,63.4,29.89,SSE,158,5.8,5.8,83,0.00,CLR,,0.09,WeatherDisplay:10.37,2013-07-23 02:06:00,
2013-07-22 22:11:00,68.7,63.3,29.89,SSE,158,1.7,1.7,83,0.00,CLR,,0.09,WeatherDisplay:10.37,2013-07-23 02:11:00,
2013-07-22 22:16:00,68.8,63.4,29.89,NW,315,0.0,0.0,83,0.00,CLR,,0.09,WeatherDisplay:10.37,2013-07-23 02:16:00,
2013-07-22 22:21:00,68.7,53.3,29.89,East,90,3.5,3.5,58,0.00,CLR,,0.09,WeatherDisplay:10.37,2013-07-23 02:21:00,
2013-07-22 22:26:00,68.7,52.8,29.89,SSW,202,1.2,1.2,57,0.00,CLR,,0.09,WeatherDisplay:10.37,2013-07-23 02:26:00,
2013-07-22 22:31:00,68.7,52.9,29.89,West,270,4.6,4.6,57,0.00,CLR,,0.09,WeatherDisplay:10.37,2013-07-23 02:31:00,
2013-07-22 22:37:00,68.7,53.4,29.89,West,270,1.7,1.7,58,0.00,CLR,,0.09,WeatherDisplay:10.37,2013-07-23 02:37:00,
2013-07-22 22:42:00,68.6,63.2,29.89,SSW,202,8.1,8.1,83,0.00,CLR,,0.09,WeatherDisplay:10.37,2013-07-23 02:42:00,
2013-07-22 22:47:00,68.8,53.5,29.89,SSW,202,1.7,1.7,58,0.00,CLR,,0.09,WeatherDisplay:10.37,2013-07-23 02:47:00,
2013-07-22 22:52:00,69.0,63.6,29.89,South,180,3.5,3.5,83,0.00,CLR,,0.09,WeatherDisplay:10.37,2013-07-23 02:52:00,
2013-07-22 22:57:00,69.3,53.9,29.89,NW,315,1.2,1.2,58,0.00,CLR,,0.09,WeatherDisplay:10.37,2013-07-23 02:57:00,
2013-07-22 23:02:00,69.1,63.7,29.88,SSW,202,1.2,1.2,83,0.00,CLR,,0.09,WeatherDisplay:10.37,2013-07-23 03:02:00,
2013-07-22 23:07:00,69.1,63.7,29.88,South,180,9.2,9.2,83,0.00,CLR,,0.09,WeatherDisplay:10.37,2013-07-23 03:07:00,
2013-07-22 23:12:00,69.1,63.7,29.88,NE,45,0.0,0.0,83,0.00,CLR,,0.09,WeatherDisplay:10.37,2013-07-23 03:12:00,
2013-07-22 23:17:00,69.1,63.7,29.88,WSW,248,1.2,0.0,83,0.00,CLR,,0.09,WeatherDisplay:10.37,2013-07-23 03:17:00,
2013-07-22 23:22:00,69.2,63.9,29.88,SW,225,0.0,0.0,83,0.00,CLR,,0.09,WeatherDisplay:10.37,2013-07-23 03:22:00,
2013-07-22 23:27:00,69.1,52.7,29.88,SW,225,3.5,3.5,56,0.00,CLR,,0.09,WeatherDisplay:10.37,2013-07-23 03:27:00,
2013-07-22 23:32:00,68.9,63.5,29.88,SW,225,3.5,3.5,83,0.00,CLR,,0.09,WeatherDisplay:10.37,2013-07-23 03:32:00,
2013-07-22 23:37:00,68.7,53.4,29.88,East,90,3.5,3.5,58,0.00,CLR,,0.09,WeatherDisplay:10.37,2013-07-23 03:37:00,
2013-07-22 23:42:00,68.6,53.2,29.88,WSW,248,3.5,3.5,58,0.00,CLR,,0.09,WeatherDisplay:10.37,2013-07-23 03:42:00,
2013-07-22 23:47:00,68.6,53.2,29.88,SSE,158,0.0,0.0,58,0.00,CLR,,0.09,WeatherDisplay:10.37,2013-07-23 03:47:00,
2013-07-22 23:52:00,68.5,63.1,29.88,SSW,202,1.2,1.2,83,0.00,CLR,,0.09,WeatherDisplay:10.37,2013-07-23 03:52:00,
2013-07-22 23:57:00,68.3,62.9,29.88,South,180,0.0,0.0,83,0.00,CLR,,0.09,WeatherDisplay:10.37,2013-07-23 03:57:00,